GW5682 Weather Reports


Display with metric or nautical units.
time (UTC)temp
F
wind
direction
speed
MPH
gust
MPH
rain 1hr
in
rain 24hr
in
rain mn
in
humidity
%
barometer
mb
20260503033107 58 0.0 0.0 0.00 0.00 0.00 63 1021.5
20260503032131 59 0.0 0.0 0.00 0.00 0.00 62 1021.5
20260503031107 59 0.0 0.0 0.00 0.00 0.00 62 1021.4
20260503030131 60 0.0 0.0 0.00 0.00 0.00 61 1021.4
20260503025107 60 0.0 0.0 0.00 0.00 0.00 60 1021.1
20260503024131 61 0.0 0.0 0.00 0.00 0.00 57 1021.2
20260503023107 62 0.0 0.0 0.00 0.00 0.00 56 1021.1
20260503022131 62 0.0 0.0 0.00 0.00 0.00 53 1021.1
20260503021107 63 0.0 0.0 0.00 0.00 0.00 53 1020.9
20260503020130 64 0.0 0.0 0.00 0.00 0.00 50 1020.8
20260503015107 64 0.0 0.0 0.00 0.00 0.00 48 1020.7
20260503014131 65 0.0 0.0 0.00 0.00 0.00 44 1020.8
20260503013107 66 0.0 0.0 0.00 0.00 0.00 43 1020.8
20260503012131 67 0.0 0.0 0.00 0.00 0.00 41 1020.6
20260503011107 68 0.0 0.0 0.00 0.00 0.00 41 1020.6
20260503010151 69 0.0 0.0 0.00 0.00 0.00 41 1020.5
20260503005207 70 225 1.0 1.0 0.00 0.00 0.00 40 1020.6
20260503004131 71 45 1.0 2.0 0.00 0.00 0.00 39 1020.3
20260503003107 72 0.0 0.0 0.00 0.00 0.00 37 1020.4
20260503002131 73 0.0 1.0 0.00 0.00 0.00 33 1020.2
20260503001106 75 90 1.0 2.0 0.00 0.00 0.00 31 1020.3
20260503000131 76 0.0 1.0 0.00 0.00 0.00 30 1020.3
20260502235107 76 270 1.0 2.0 0.00 0.00 0.00 31 1020.4
20260502234131 75 0.0 1.0 0.00 0.00 0.00 30 1020.5
20260502233127 76 225 2.0 3.0 0.00 0.00 0.00 30 1020.3
20260502232131 76 45 2.0 3.0 0.00 0.00 0.00 28 1020.4
20260502231107 76 315 1.0 2.0 0.00 0.00 0.00 30 1020.6
20260502230131 77 0.0 1.0 0.00 0.00 0.00 30 1020.6
20260502225107 76 270 1.0 2.0 0.00 0.00 0.00 30 1020.7
20260502224131 77 45 1.0 2.0 0.00 0.00 0.00 27 1020.6
20260502223127 77 248 3.0 3.0 0.00 0.00 0.00 26 1020.7
20260502222130 76 90 1.0 3.0 0.00 0.00 0.00 28 1020.8
20260502221127 76 315 9.0 11.0 0.00 0.00 0.00 25 1021.0
20260502220131 76 270 1.0 3.0 0.00 0.00 0.00 25 1020.9
20260502215107 77 315 3.0 5.0 0.00 0.00 0.00 26 1021.0
20260502214151 77 270 4.0 6.0 0.00 0.00 0.00 28 1021.0
20260502213127 77 315 3.0 5.0 0.00 0.00 0.00 26 1021.1
20260502212151 77 45 1.0 1.0 0.00 0.00 0.00 25 1021.3
20260502211107 76 135 2.0 3.0 0.00 0.00 0.00 25 1021.5
20260502210131 76 0 1.0 3.0 0.00 0.00 0.00 28 1021.8
20260502205107 76 0 3.0 5.0 0.00 0.00 0.00 25 1021.5
20260502204131 76 315 3.0 5.0 0.00 0.00 0.00 28 1021.6
20260502203127 76 0 1.0 2.0 0.00 0.00 0.00 27 1021.8
20260502202131 75 45 2.0 3.0 0.00 0.00 0.00 25 1021.9
20260502201107 75 0 4.0 5.0 0.00 0.00 0.00 23 1022.1
20260502200131 75 90 3.0 4.0 0.00 0.00 0.00 30 1022.2
20260502195107 76 270 1.0 3.0 0.00 0.00 0.00 26 1022.3
20260502194130 76 315 5.0 6.0 0.00 0.00 0.00 26 1022.5
20260502193106 74 0 1.0 1.0 0.00 0.00 0.00 26 1022.4
20260502192151 74 338 1.0 1.0 0.00 0.00 0.00 26 1022.4
20260502191107 74 338 3.0 4.0 0.00 0.00 0.00 25 1022.6
20260502190131 74 203 3.0 5.0 0.00 0.00 0.00 28 1022.8
20260502185107 74 0 5.0 7.0 0.00 0.00 0.00 27 1022.9
20260502184131 74 270 3.0 5.0 0.00 0.00 0.00 28 1022.9
20260502183106 74 45 4.0 5.0 0.00 0.00 0.00 25 1023.0
20260502182131 74 45 1.0 1.0 0.00 0.00 0.00 28 1023.1
20260502181107 73 0 3.0 5.0 0.00 0.00 0.00 24 1023.2
20260502180131 73 180 1.0 2.0 0.00 0.00 0.00 30 1023.4
20260502170131 71 0 2.0 3.0 0.00 0.00 0.00 28 1024.0
20260502164131 70 45 1.0 3.0 0.00 0.00 0.00 30 1024.0
20260502163147 70 0 1.0 1.0 0.00 0.00 0.00 32 1024.0
20260502162131 70 315 3.0 3.0 0.00 0.00 0.00 28 1023.9
20260502161107 69 45 5.0 7.0 0.00 0.00 0.00 30 1024.2
20260502160211 69 0 3.0 5.0 0.00 0.00 0.00 32 1024.0
20260502152131 66 90 4.0 5.0 0.00 0.00 0.00 40 1023.7
20260502151107 65 225 1.0 2.0 0.00 0.00 0.00 41 1023.7
20260502150131 65 0 2.0 3.0 0.00 0.00 0.00 41 1023.8
20260502130131 52 0.0 1.0 0.00 0.00 0.00 96 1023.0
20260502123107 49 0.0 1.0 0.00 0.00 0.00 95 1022.6
20260502122131 48 0.0 1.0 0.00 0.00 0.00 94 1022.4
20260502121107 48 0.0 0.0 0.00 0.00 0.00 95 1022.1
20260502120131 48 0.0 0.0 0.00 0.00 0.00 95 1022.1
20260502115107 48 0.0 0.0 0.00 0.00 0.00 94 1022.0
20260502114131 48 0.0 0.0 0.00 0.00 0.00 94 1021.9
20260502113107 48 0.0 0.0 0.00 0.00 0.00 93 1021.7
20260502112151 48 0.0 0.0 0.00 0.00 0.00 93 1021.7
20260502111127 48 0.0 0.0 0.00 0.00 0.00 93 1021.7
20260502110131 48 0.0 0.0 0.00 0.00 0.00 93 1021.5
20260502105107 49 0.0 0.0 0.00 0.00 0.00 93 1021.3
20260502104131 48 0.0 0.0 0.00 0.00 0.00 93 1020.9
20260502103127 48 0.0 0.0 0.00 0.00 0.00 93 1020.9
20260502102130 49 0.0 0.0 0.00 0.00 0.00 93 1020.9
20260502101107 48 0.0 0.0 0.00 0.00 0.00 92 1021.0
20260502100131 48 0.0 0.0 0.00 0.00 0.00 92 1021.1
20260502091106 49 0.0 0.0 0.00 0.00 0.00 91 1021.0
20260502090131 50 0.0 0.0 0.00 0.00 0.00 91 1021.0
20260502070621 51 0.0 0.0 0.00 0.00 0.00 90 1020.9
20260502065645 51 0.0 0.0 0.00 0.00 0.00 90 1020.9
20260502064621 51 45 1.0 1.0 0.00 0.00 0.00 90 1020.9
20260502063725 52 0.0 1.0 0.00 0.00 0.00 90 1020.9
20260502062621 52 0.0 0.0 0.00 0.00 0.00 89 1020.9
20260502061645 52 0.0 1.0 0.00 0.00 0.00 89 1021.0
20260502060621 52 0.0 0.0 0.00 0.00 0.00 85 1020.9
20260502055645 52 0.0 0.0 0.00 0.00 0.00 85 1020.9
20260502054641 53 0.0 1.0 0.00 0.00 0.00 84 1021.1
20260502053705 53 0.0 0.0 0.00 0.00 0.00 84 1021.0
20260502052621 53 0.0 0.0 0.00 0.00 0.00 83 1021.0
20260502051644 54 0.0 0.0 0.00 0.00 0.00 84 1020.7
20260502050621 54 0.0 0.0 0.00 0.00 0.00 83 1020.7
20260502045705 54 0.0 0.0 0.00 0.00 0.00 83 1020.9
20260502044641 55 0.0 0.0 0.00 0.00 0.00 80 1020.7
20260502043645 55 0.0 1.0 0.00 0.00 0.00 80 1020.9
20260502042621 55 0.0 0.0 0.00 0.00 0.00 80 1020.8
20260502041645 55 0.0 0.0 0.00 0.00 0.00 79 1020.8
20260502040621 56 0.0 0.0 0.00 0.01 0.00 78 1020.8
20260502035705 56 0.0 0.0 0.00 0.01 0.00 78 1020.7
20260502034641 56 0.0 0.0 0.00 0.01 0.00 78 1020.6
20260502033644 56 0.0 0.0 0.00 0.01 0.00 77 1020.8